Regional Weather Roundup
Issued by NWS

Home | Current Version | Previous Version | Graphics & Text | Print | Product List | Glossary On
Versions: 1 2 3 4 5 6 7 8 9 10 11 12 13 14 15 16 17 18 19 20 21 22 23 24 25 26 27 28 29 30 31 32 33 34 35 36 37 38 39 40 41 42 43 44 45 46 47 48 49 50
000
ASUS43 KOAX 261002
RWRNE

WEATHER ROUNDUP FOR NEBRASKA
NATIONAL WEATHER SERVICE OMAHA NE
500 AM CDT TUE JUL 26 2016

NOTES: SATELLITE DATA IS BEING USED TO AUGMENT CLOUD COVER ABOVE
       12000 FEET.
       "FAIR" INDICATES FEW OR NO CLOUDS BELOW 12,000 FEET WITH NO
       SIGNIFICANT WEATHER AND/OR OBSTRUCTIONS TO VISIBILITY.

  * THESE STATIONS DO NOT REPORT WEATHER SUCH AS RAIN...SNOW OR FOG.

NEZ001>004-019>022-054>056-261100-
NEBRASKA PANHANDLE

CITY           SKY/WX    TMP DP  RH WIND       PRES   REMARKS
SCOTTSBLUFF    CLEAR     65  61  87 E8        30.06S
ALLIANCE       CLEAR     64  62  93 SE12      30.06F
CHADRON        CLEAR     72  61  68 SW3       30.00S
KIMBALL        CLEAR     62  62 100 S8        30.12S
SIDNEY         CLEAR     64  62  93 S12       30.11S
$$

NEZ057>060-069>072-079>082-261100-
SOUTHWEST NEBRASKA

CITY           SKY/WX    TMP DP  RH WIND       PRES   REMARKS
NORTH PLATTE   CLEAR     64  63  96 E6        30.11S
IMPERIAL       CLEAR     66  63  90 S7        30.11S
LEXINGTON      CLEAR     66  63  89 SE6       30.11S
MCCOOK         CLEAR     67  63  87 S6        30.10S
OGALLALA       CLEAR     68  64  86 CALM      30.10F
$$

NEZ005>010-023>029-035>040-094-261100-
NORTH CENTRAL NEBRASKA

CITY           SKY/WX    TMP DP  RH WIND       PRES   REMARKS
VALENTINE      CLEAR     69  62  78 S14       30.05F
AINSWORTH      CLEAR     66  62  87 S9        30.08F
BROKEN BOW     CLEAR     62  60  93 S3        30.10F
O`NEILL        CLEAR     65  62  87 S5        30.08F
ORD            CLEAR     64  60  87 CALM      30.09S
THEDFORD       CLEAR     66  64  93 S5        30.10F
$$

NEZ041-046>049-061>064-073>077-083>087-261100-
SOUTH CENTRAL NEBRASKA

CITY           SKY/WX    TMP DP  RH WIND       PRES   REMARKS
GRAND ISLAND   CLEAR     64  61  90 S6        30.10F
AURORA         CLEAR     62  61  97 CALM      30.10S
HASTINGS       CLEAR     66  60  81 S3        30.11F
HEBRON         CLEAR     60  58  95 CALM      30.09S
HOLDREGE       CLEAR     63  60  92 SE6       30.11S
KEARNEY *      CLEAR     63  59  88 S3        30.11F
YORK           CLEAR     64  63  94 CALM      30.10S
$$

NEZ011>018-030>034-042>045-261100-
NORTHEAST NEBRASKA

CITY           SKY/WX    TMP DP  RH WIND       PRES   REMARKS
NORFOLK        CLEAR     62  61  96 E3        30.09S
ALBION         CLEAR     61  58  91 CALM      30.10S
BLAIR          CLEAR     67  64  90 CALM      30.08F
FREMONT        CLEAR     64  63  96 CALM      30.09S
TEKAMAH        PTCLDY    61  59  93 SW3       30.08S
WAYNE          CLEAR     61  60  96 S5        30.09S
$$

NEZ050>053-065>068-078-088>093-261100-
SOUTHEAST NEBRASKA

CITY           SKY/WX    TMP DP  RH WIND       PRES   REMARKS
LINCOLN        CLEAR     63  62  97 N5        30.09R
OMAHA EPPLEY   CLEAR     65  62  90 CALM      30.08S
BEATRICE       CLEAR     62  61  96 CALM      30.09R
FALLS CITY     CLEAR     66  65  96 CALM      30.06S
NEBRASKA CITY  PTCLDY    67  67 100 CALM      30.09R
PLATTSMOUTH    CLEAR     67  66  97 CALM      30.09R
$$

NEZ044-045-051>053-067-261100-
OMAHA AREA

CITY           SKY/WX    TMP DP  RH WIND       PRES   REMARKS
OMAHA EPPLEY   CLEAR     65  62  90 CALM      30.08S
BLAIR          CLEAR     67  64  90 CALM      30.08F
FREMONT        CLEAR     64  63  96 CALM      30.09S
MILLARD        CLEAR     67  66  95 CALM      30.08R FOG
OFFUTT AFB     CLEAR     62  62 100 CALM      30.08R
PLATTSMOUTH    CLEAR     67  66  97 CALM      30.09R
WAHOO          FAIR      63  61  95 NW5       30.09S
$$




USA.gov is the U.S. government's official web portal to all federal, state and local government web resources and services.